Погода в Верхнебаканском

Россия / Краснодарский край     44°50′37″N   37°40′01″E
темп.,
°C
ветер,
м/с
пор.,
м/с
влажн.,
%
обл.,
%
осадки,
мм/ч
давл.,
гПа
погр.,
м
11 мая, вт
вт1100:00+10зюз61063100 0.0 1019669
03:00+10зюз61061100 0.1 1017854
06:00+11зюз71177100 0.2 10151612
09:00+8зюз71388100 1.6 10161171
12:00+9юз81382100 0.5 10151380
15:00+9юз61196100 3.9 10141144
18:00+9юз61095100 3.1 1014840
21:00+10юз3797100 4.3 1014573
12 мая, ср
ср1200:00+10юз3599100 2.0 1014434
03:00+10ю4898100 6.8 1013658
06:00+9ю61093100 2.0 1015803
09:00+10ю5986100 3.9 1015677
12:00+14ю5758100 0.0 1015765
15:00+15ююв2350100 0.0 1014570
18:00+16ссз12525 0.0 1013517
21:00+11ссв23855 0.0 101338
13 мая, чт
чт1300:00+11ссв33890 0.0 101240
03:00+10ссв22910 0.0 101234
06:00+11ссв22880 0.0 101241
09:00+19всв225623 0.0 1011295
12:00+24вюв13355 0.0 1010987
15:00+25в1339100 0.0 1010999
18:00+22св236998 0.0 1009215
21:00+17ссв228722 0.0 101023
14 мая, пт
пт1400:00+17всв117759 0.0 100911
03:00+17ю1179100 0.0 100911
06:00+17вюв017842 0.0 101011
09:00+24ю13475 0.0 1010398
12:00+25ю35430 0.0 1010550
15:00+26ююв35420 0.0 1010594
18:00+22ю12590 0.0 1010120
21:00+17св11760 0.0 101011
15 мая, сб
сб1500:00+15сз22822 0.0 101234
03:00+14сз1287100 0.1 101225
06:00+14сз11845 0.5 101317
09:00+20юз11575 0.5 1014322
12:00+22ююз3350100 0.0 1015707
15:00+21ююз235275 0.0 1015553
18:00+20зюз1163100 0.0 1014220
21:00+16с117698 0.0 101416